Weather History for Racine, WI

Change the Weather History Date:

Saturday, October 5, 2013

  Actual Average Record
Temperature  
Mean Temperature 68 °F -  
Max Temperature 75 °F 62 °F 82 °F (2005)
Min Temperature 62 °F 46 °F 30 °F (2004)
Cooling Degree Days 2    
Growing Degree Days 18 (Base 50)    
Moisture  
Dew Point 65 °F    
Average Humidity 91    
Maximum Humidity 100    
Minimum Humidity 73    
Precipitation  
Precipitation 1.00 in - - ()
Sea Level Pressure  
Sea Level Pressure 29.87 in    
Wind  
Wind Speed 5 mph (South)    
Max Wind Speed 20 mph    
Max Gust Speed 26 mph    
Visibility 4 miles    
Events Fog , Rain , Thunderstorm    
Averages and records for this station are not official NWS values.
T = Trace of Precipitation, MM = Missing Value Source: NWS Daily Summary

Daily Weather History Graph

Daily Weather History Graph

Search for Another Location

Airport:

Trip Planner

Search our weather history database for the weather conditions in past years. The results will help you decide how hot, cold, wet, or windy it might be!

Date:

Astronomy

Oct. 05, 2013 Rise Set
Actual Time 6:53 AM CDT 6:25 PM CDT
Civil Twilight 6:25 AM CDT 6:53 PM CDT
Nautical Twilight 5:52 AM CDT 7:26 PM CDT
Astronomical Twilight 5:19 AM CDT 7:58 PM CDT
Moon 7:34 AM CDT (10/5) 6:41 PM CDT (10/5)
Length of Visible Light 12h 28m
Length of Day
11h 31m
New Moon, 1% of the Moon is Illuminated
Oct 5
New Moon
Oct 11
First Quarter
Oct 18
Full
Oct 26
Last Quarter
Nov 3
New

Hourly Weather History & Observations

Time (CDT) Temp. Dew Point Humidity Pressure Visibility Wind Dir Wind Speed Gust Speed Precip Events Conditions
12:35 AM 62.6 °F 62.6 °F 100% 29.98 in 1.8 mi NNE 5.8 mph - N/A   Overcast
12:53 AM 63.0 °F 62.1 °F 97% 29.96 in 1.2 mi NE 4.6 mph - N/A   Overcast
1:03 AM 62.6 °F 60.8 °F 94% 29.96 in 0.5 mi Calm Calm - N/A Fog Fog
1:53 AM 63.0 °F 63.0 °F 100% 29.95 in 0.2 mi Calm Calm - N/A Fog Fog
2:53 AM 64.0 °F 63.0 °F 96% 29.95 in 0.2 mi North 3.5 mph - N/A Fog Fog
3:53 AM 64.0 °F 63.0 °F 96% 29.94 in 0.2 mi Calm Calm - N/A Fog Fog
4:53 AM 64.0 °F 63.0 °F 96% 29.94 in 0.2 mi NNE 3.5 mph - N/A Fog Fog
5:53 AM 63.0 °F 62.1 °F 97% 29.93 in 0.2 mi Calm Calm - N/A Fog Fog
6:53 AM 63.0 °F 62.1 °F 97% 29.93 in 0.2 mi Calm Calm - N/A Fog Fog
7:53 AM 64.9 °F 64.0 °F 97% 29.93 in 0.2 mi South 3.5 mph - N/A Fog Fog
8:34 AM 66.2 °F 64.4 °F 94% 29.93 in 1.5 mi SSW 3.5 mph - N/A   Overcast
8:45 AM 66.2 °F 64.4 °F 94% 29.93 in 2.0 mi South 4.6 mph - N/A   Overcast
8:53 AM 66.0 °F 64.9 °F 96% 29.92 in 2.5 mi South 3.5 mph - N/A   Overcast
9:09 AM 66.2 °F 66.2 °F 100% 29.93 in 3.0 mi South 3.5 mph - N/A   Overcast
9:30 AM 68.0 °F 66.2 °F 94% 29.93 in 2.5 mi SSW 3.5 mph - N/A   Overcast
9:53 AM 69.1 °F 68.0 °F 96% 29.91 in 2.5 mi Calm Calm - N/A   Overcast
10:06 AM 71.6 °F 68.0 °F 88% 29.92 in 3.0 mi Variable 3.5 mph - N/A   Overcast
10:24 AM 71.6 °F 68.0 °F 88% 29.92 in 3.0 mi WSW 5.8 mph - N/A   Overcast
10:53 AM 73.0 °F 69.1 °F 87% 29.91 in 4.0 mi SW 5.8 mph - N/A   Overcast
11:17 AM 71.6 °F 66.2 °F 83% 29.91 in 5.0 mi SE 4.6 mph - N/A   Overcast
11:53 AM 73.0 °F 68.0 °F 84% 29.90 in 5.0 mi SE 9.2 mph - N/A   Haze
12:13 PM 69.8 °F 66.2 °F 88% 29.91 in 4.0 mi SSE 8.1 mph - N/A   Overcast
12:22 PM 71.6 °F 66.2 °F 83% 29.90 in 3.0 mi SSE 8.1 mph - N/A   Overcast
12:53 PM 73.0 °F 68.0 °F 84% 29.88 in 3.0 mi SE 8.1 mph - N/A   Haze
1:51 PM 73.4 °F 68.0 °F 83% 29.86 in 4.0 mi SSE 10.4 mph - N/A   Haze
1:53 PM 73.0 °F 68.0 °F 84% 29.86 in 4.0 mi SSE 8.1 mph - N/A   Haze
2:04 PM 71.6 °F 68.0 °F 88% 29.86 in 1.8 mi SSE 10.4 mph - 0.03 in Rain Light Rain
2:16 PM 71.6 °F 68.0 °F 88% 29.84 in 2.0 mi SSE 9.2 mph - 0.03 in Rain Light Rain
2:42 PM 73.4 °F 69.8 °F 88% 29.84 in 3.0 mi South 11.5 mph - 0.03 in   Mostly Cloudy
2:53 PM 73.0 °F 69.1 °F 87% 29.83 in 3.0 mi South 8.1 mph - 0.03 in   Mostly Cloudy
2:59 PM 71.6 °F 68.0 °F 88% 29.85 in 3.0 mi West 10.4 mph 16.1 mph N/A   Overcast
3:06 PM 71.6 °F 62.6 °F 73% 29.85 in 7.0 mi WNW 8.1 mph - N/A   Overcast
3:13 PM 69.8 °F 62.6 °F 78% 29.84 in 10.0 mi NNW 8.1 mph - N/A Thunderstorm Overcast
3:53 PM 69.1 °F 64.0 °F 84% 29.83 in 10.0 mi NNE 6.9 mph - 0.00 in   Mostly Cloudy
4:09 PM 69.8 °F 64.4 °F 83% 29.83 in 10.0 mi Calm Calm - N/A Thunderstorm Mostly Cloudy
4:44 PM 66.2 °F 64.4 °F 94% 29.83 in 1.5 mi Calm Calm - 0.06 in Rain , Thunderstorm Heavy Rain
4:53 PM 66.9 °F 64.0 °F 90% 29.82 in 2.5 mi Calm Calm - 0.06 in Rain , Thunderstorm Light Rain
4:58 PM 66.2 °F 64.4 °F 94% 29.83 in 2.5 mi Calm Calm - 0.00 in Thunderstorm Mostly Cloudy
5:06 PM 66.2 °F 64.4 °F 94% 29.83 in 1.8 mi North 3.5 mph - 0.00 in Rain , Thunderstorm Light Rain
5:09 PM 66.2 °F 64.4 °F 94% 29.83 in 6.0 mi Calm Calm - 0.01 in Rain , Thunderstorm Light Rain
5:20 PM 66.2 °F 64.4 °F 94% 29.82 in 10.0 mi NE 3.5 mph - 0.01 in Rain , Thunderstorm Light Rain
5:27 PM 66.2 °F 64.4 °F 94% 29.82 in 9.0 mi North 3.5 mph - 0.01 in Rain , Thunderstorm Light Rain
5:42 PM 66.2 °F 64.4 °F 94% 29.89 in 2.5 mi South 16.1 mph 21.9 mph 0.09 in Rain , Thunderstorm Rain
5:48 PM 66.2 °F 64.4 °F 94% 29.88 in 1.0 mi SSE 19.6 mph 26.5 mph 0.27 in Rain , Thunderstorm Heavy Rain
5:53 PM 66.0 °F 64.0 °F 93% 29.86 in 0.8 mi SSE 15.0 mph 26.5 mph 0.45 in Rain , Thunderstorm Heavy Rain
5:59 PM 66.2 °F 64.4 °F 94% 29.85 in 1.0 mi SSE 11.5 mph 20.7 mph 0.15 in Rain , Thunderstorm Heavy Thunderstorms and Rain
6:09 PM 66.2 °F 62.6 °F 88% 29.84 in 3.0 mi South 8.1 mph - 0.19 in Rain , Thunderstorm Thunderstorms and Rain
6:21 PM 64.4 °F 62.6 °F 94% 29.84 in 3.0 mi Calm Calm - 0.21 in Rain , Thunderstorm Rain
6:34 PM 64.4 °F 62.6 °F 94% 29.85 in 10.0 mi SW 4.6 mph - 0.21 in Rain Light Rain
6:53 PM 66.0 °F 63.0 °F 90% 29.83 in 3.0 mi ESE 6.9 mph - 0.24 in Rain Light Rain
7:53 PM 66.0 °F 62.1 °F 87% 29.81 in 10.0 mi SSE 5.8 mph - 0.00 in   Partly Cloudy
8:53 PM 64.9 °F 63.0 °F 93% 29.81 in 10.0 mi South 4.6 mph - N/A   Overcast
9:53 PM 66.0 °F 64.0 °F 93% 29.80 in 10.0 mi South 3.5 mph - N/A   Overcast
10:19 PM 66.2 °F 64.4 °F 94% 29.80 in 10.0 mi South 9.2 mph - N/A   Overcast
10:29 PM 66.2 °F 64.4 °F 94% 29.80 in 3.0 mi South 9.2 mph - 0.02 in Rain Light Rain
10:40 PM 66.2 °F 64.4 °F 94% 29.80 in 2.5 mi WSW 8.1 mph - 0.05 in Rain Light Rain
10:48 PM 66.2 °F 64.4 °F 94% 29.80 in 1.2 mi SW 10.4 mph - 0.10 in Rain Rain
10:51 PM 66.2 °F 64.4 °F 94% 29.80 in 2.0 mi SW 8.1 mph - 0.10 in Rain Light Rain
10:53 PM 66.9 °F 64.0 °F 90% 29.79 in 4.0 mi SW 8.1 mph - 0.10 in Rain Light Rain
11:04 PM 66.2 °F 62.6 °F 88% 29.80 in 1.8 mi SSW 8.1 mph - 0.07 in Rain Heavy Rain
11:16 PM 64.4 °F 64.4 °F 100% 29.78 in 3.0 mi SW 5.8 mph - 0.12 in Rain Light Rain
11:53 PM 64.9 °F 63.0 °F 93% 29.75 in 10.0 mi Calm Calm - 0.12 in   Scattered Clouds